This is the latest recevied weather packets stored in our database for station/object ac2ev. If no packets are shown the sender has not sent any weather packets the latest 1 day(s).
| Time | Temp. | Humidity | Pressure | Rain* | Wind** | Luminosity | Snow |
|---|---|---|---|---|---|---|---|
| 1777997463 | 19.44° C | 61% | 1003.4 hPa | 0 mm | 1.79 m/s, 248° | - | - |
| 1777997163 | 19.44° C | 61% | 1003.2 hPa | 0 mm | 1.79 m/s, 251° | - | - |
| 1777996864 | 19.44° C | 61% | 1003.1 hPa | 0 mm | 2.24 m/s, 204° | - | - |
| 1777996562 | 20° C | 60% | 1003.1 hPa | 0 mm | 1.79 m/s, 236° | - | - |
| 1777996264 | 20° C | 60% | 1002.9 hPa | 0 mm | 1.34 m/s, 237° | - | - |
| 1777995963 | 20° C | 61% | 1002.9 hPa | 0 mm | 1.79 m/s, 211° | - | - |
| 1777995664 | 20° C | 60% | 1002.7 hPa | 0 mm | 2.68 m/s, 230° | - | - |
| 1777995362 | 20° C | 60% | 1002.7 hPa | 0 mm | 1.79 m/s, 227° | - | - |
| 1777995062 | 20° C | 61% | 1002.5 hPa | 0 mm | 2.24 m/s, 240° | - | - |
| 1777994773 | 20° C | 60% | 1002.3 hPa | 0 mm | 2.24 m/s, 225° | - | - |
| 1777994463 | 20° C | 60% | 1002.1 hPa | 0 mm | 0.89 m/s, 243° | - | - |
| 1777994163 | 20° C | 61% | 1002.1 hPa | 0 mm | 0.89 m/s, 198° | - | - |
| 1777993862 | 20° C | 61% | 1002 hPa | 0 mm | 0.89 m/s, 250° | - | - |
| 1777993563 | 19.44° C | 61% | 1002.1 hPa | 0 mm | 1.79 m/s, 240° | - | - |
| 1777993262 | 20° C | 60% | 1002.2 hPa | 0 mm | 1.79 m/s, 240° | - | - |
| 1777992962 | 20° C | 60% | 1002.2 hPa | 0 mm | 2.24 m/s, 240° | - | - |
| 1777992662 | 20° C | 60% | 1002.2 hPa | 0 mm | 2.24 m/s, 264° | - | - |
| 1777992363 | 20° C | 60% | 1002.1 hPa | 0 mm | 2.24 m/s, 188° | - | - |
| 1777992062 | 20° C | 59% | 1002.1 hPa | 0 mm | 2.68 m/s, 216° | - | - |
| 1777991762 | 20.56° C | 58% | 1002.1 hPa | 0 mm | 2.68 m/s, 256° | - | - |
| 1777991462 | 21.11° C | 57% | 1002.1 hPa | 0 mm | 2.24 m/s, 246° | - | - |
| 1777991165 | 21.67° C | 56% | 1001.9 hPa | 0 mm | 3.13 m/s, 265° | - | - |
| 1777990862 | 21.67° C | 56% | 1001.6 hPa | 0 mm | 3.13 m/s, 249° | - | - |
| 1777990562 | 21.67° C | 57% | 1001.5 hPa | 0 mm | 2.24 m/s, 208° | - | - |
| 1777990262 | 21.67° C | 56% | 1001.6 hPa | 0 mm | 2.68 m/s, 211° | - | - |
* Rain latest hour (hover to see other rain measurements)
** Current wind speed in m/s (hover to see current wind gust speed)